Вернуться в каталог

STARLINK-36387

АктивенСвязьSSO
NORAD 67610·PAYLOAD·🇺🇸 United States

Запущен Jan 29, 2026 с Vandenberg Space Force Base

Loading…

Ближайшие Пролёты (ближайшие 24 часа)

TLE

СвежийSource: CelesTrak SupGP

Эпоха: Sep 15, 2026, 04:19 UTC

1 67610C 26018X   26258.18034722 -.00013214  00000+0 -41014-3 0  2580
2 67610  97.2848 328.4495 0000887  86.1837  21.4726 15.33450396    13

Отслеживайте STARLINK-36387 в реальном времени с AllMySat

Download on the App Store